Regional Weather Roundup
Issued by NWS

Home | Current Version | Previous Version | Graphics & Text | Print | Product List | Glossary On
Versions: 1 2 3 4 5 6 7 8 9 10 11 12 13 14 15 16 17 18 19 20 21 22 23 24 25 26 27 28
000
ASUS45 KSLC 261410
RWRUT

UTAH REGIONAL WEATHER ROUNDUP
NATIONAL WEATHER SERVICE SALT LAKE CITY UT
800 AM MDT MON JUN 26 2017

UTZ001>011-023>025-261500-

NORTHERN UTAH

CITY           SKY/WX    TMP DP  RH WIND       PRES   REMARKS
BRIGHAM CITY   SUNNY     66  44  45 NW8       30.10F
HILL AFB       SUNNY     64  41  42 E25       30.13S
LOGAN          SUNNY     59  51  75 N3        30.15S
OGDEN          SUNNY     69  42  37 S8        30.11R
SALT LAKE CITY MOSUNNY   77  43  29 SE8       30.10R
TOOELE VALLEY  SUNNY     72  39  30 S3        30.10S
WENDOVER         N/A     75  32  20 CALM      30.09S
HEBER CITY     SUNNY     55  43  62 CALM      30.25S
WEST JORDAN    SUNNY     71  51  49 S8        30.13S

$$

UTZ011>015-024>027-261500-

CENTRAL/NORTHEAST UTAH

CITY           SKY/WX    TMP DP  RH WIND       PRES   REMARKS
PROVO AIRPORT  SUNNY     67  46  47 E3        30.15S
MOAB/CANYONLAN SUNNY     80  26  13 CALM      30.13R
DELTA          SUNNY     68  32  26 NE5       30.13S
PRICE          SUNNY     69  29  22 CALM      30.24R
RICHFIELD      SUNNY     59  39  47 CALM      30.23S
VERNAL         SUNNY     69  43  38 CALM      30.24R

$$

UTZ013>016-019>022-027-261500-

SOUTHERN UTAH

CITY           SKY/WX    TMP DP  RH WIND       PRES   REMARKS
BRYCE CANYON   SUNNY     58  33  39 W6        30.38S
CEDAR CITY     SUNNY     72  33  24 SE5       30.19S
MILFORD        MOSUNNY   63  30  28 S9        30.15R
ST GEORGE      SUNNY     79  36  21 CALM      30.01S
HANKSVILLE     SUNNY     70  21  16 CALM      30.16S
KANAB          SUNNY     68  37  32 NE2       30.21S
BLANDING       SUNNY     71  33  24 SE3       30.34R

$$

REGIONAL REPORTS     COLORADO/ARIZONA

CITY           SKY/WX    TMP DP  RH WIND       PRES   REMARKS
CRAIG, CO      SUNNY     59  36  42 NE7       30.32F
GRAND JUNCTION SUNNY     72  35  25 S9        30.20R
RIFLE, CO      SUNNY     63  34  33 E3        30.29S
MONTROSE, CO   SUNNY     65  35  33 SE5       30.30R
CORTEZ, CO     SUNNY     63  37  38 CALM      30.29R
COLORADO CITY    N/A     72  41  33 SE3       30.20R
PAGE, AZ       SUNNY     81  36  19 CALM      30.11R
GRAND CANYON   SUNNY     61  39  44 CALM      30.33S
KINGMAN, AZ    SUNNY     88  28  11 S18       30.06R
FLAGSTAFF, AZ  SUNNY     64  46  52 CALM      30.38R

$$

REGIONAL REPORTS    NEVADA/IDAHO/WYOMING

CITY           SKY/WX    TMP DP  RH WIND       PRES   REMARKS
LAS VEGAS, NV  SUNNY     92  21   7 S10       29.91R
ELY, NY        SUNNY     60  30  32 S6        30.23F
ELKO, NV       SUNNY     61  39  44 CALM      30.12F
POCATELLO, ID  SUNNY     62  48  60 NE3       30.13F
BURLEY, ID     MOSUNNY   62  49  62 E8        30.07S
FORT BRIDGER,    N/A     57  34  41 CALM      30.38R
EVANSTON, WY   SUNNY     59  38  45 E8        30.34R
ROCK SPRINGS,  SUNNY     58  30  34 SE3       30.34S
KEMMERER, WY     N/A     59  32  36 NE15      30.36S

$$




USA.gov is the U.S. government's official web portal to all federal, state and local government web resources and services.